Date String (YYYY-MM-DD hh:mm:ss) UTC,Instrument flags,Ambient pressure (hPa),Sample flow (lpm),Bypass flow (lpm),Sample temperature (°C),Ambient temperature (°C),ASC tube jacket temperature (°C),LED temperature (°C),Box temperature (°C),Sample RH (%),Mass concentration (μg/m³),Mass concentration (μg/m³)
DateTimeUTC,F1_M11,P_M11,Q1_M11,Q2_M11,T1_M11,T2_M11,T3_M11,T4_M11,T5_M11,U1_M11,X0_M11,X2_M11
2021-08-14 00:00:00,,0833.6,5.01,0.00,29.5,28.2,00.0,38.3,31.3,33.8,0031.35,0012.02
2021-08-14 00:01:00,,0833.6,4.98,0.00,29.5,28.4,00.0,38.3,31.4,33.8,0032.39,0012.05
2021-08-14 00:02:00,,0833.6,5.01,0.00,29.6,28.0,00.0,38.3,31.2,33.8,0033.90,0012.09
2021-08-14 00:03:00,,0833.5,5.00,0.00,29.5,26.5,00.0,38.3,30.8,33.8,0035.99,0012.18
2021-08-14 00:04:00,,0833.5,5.00,0.00,29.4,25.9,00.0,38.3,30.6,34.0,0037.17,0012.29
2021-08-14 00:05:00,,0833.5,4.99,0.00,29.3,26.1,00.0,38.3,30.7,34.0,0038.57,0012.42
2021-08-14 00:06:00,,0833.5,4.99,0.00,29.2,26.5,00.0,38.3,30.7,34.0,0040.87,0012.49
2021-08-14 00:07:00,,0833.5,5.01,0.00,29.2,26.9,00.0,38.3,30.9,34.5,0041.81,0012.55
2021-08-14 00:08:00,,0833.5,4.99,0.00,29.3,27.3,00.0,38.3,31.0,34.8,0043.09,0012.58
2021-08-14 00:09:00,,0833.5,5.01,0.00,29.4,27.7,00.0,38.3,31.1,34.1,0043.04,0012.51
2021-08-14 00:10:00,,0833.5,4.99,0.00,29.4,28.0,00.0,38.3,31.2,34.4,0041.93,0012.55
2021-08-14 00:11:00,,0833.5,5.01,0.00,29.5,28.3,00.0,38.3,31.3,34.2,0039.33,0012.60
2021-08-14 00:12:00,,0833.6,4.99,0.00,29.5,28.1,00.0,38.3,31.2,33.7,0038.34,0012.65
2021-08-14 00:13:00,,0833.6,5.00,0.00,29.5,26.7,00.0,38.3,30.8,33.8,0038.00,0012.65
2021-08-14 00:14:00,,0833.6,5.00,0.00,29.3,25.9,00.0,38.3,30.5,34.2,0038.33,0012.65
2021-08-14 00:15:00,,0833.6,5.01,0.00,29.3,26.0,00.0,38.3,30.6,34.5,0038.58,0012.59
2021-08-14 00:16:00,,0833.6,4.99,0.00,29.2,26.4,00.0,38.3,30.7,34.7,0037.49,0012.50
2021-08-14 00:17:00,,0833.6,5.00,0.00,29.2,26.8,00.0,38.3,30.8,34.7,0035.75,0012.43
2021-08-14 00:18:00,,0833.6,5.01,0.00,29.2,27.2,00.0,38.2,30.9,34.7,0035.49,0012.37
2021-08-14 00:19:00,,0833.6,5.01,0.00,29.3,27.6,00.0,38.2,31.0,34.5,0034.06,0012.36
2021-08-14 00:20:00,,0833.6,5.00,0.00,29.3,27.9,00.0,38.3,31.1,34.5,0033.95,0012.43
2021-08-14 00:21:00,,0833.6,5.01,0.00,29.4,28.1,00.0,38.3,31.2,34.8,0033.34,0012.44
2021-08-14 00:22:00,,0833.6,4.98,0.00,29.5,28.4,00.0,38.3,31.3,34.7,0032.91,0012.40
2021-08-14 00:23:00,,0833.6,5.01,0.00,29.5,28.3,00.0,38.3,31.3,34.4,0035.59,0012.34
2021-08-14 00:24:00,,0833.6,5.00,0.00,29.5,27.0,00.0,38.3,30.9,34.2,0034.80,0012.36
2021-08-14 00:25:00,,0833.6,4.98,0.00,29.3,25.9,00.0,38.3,30.6,34.2,0033.36,0012.37
2021-08-14 00:26:00,,0833.7,5.01,0.00,29.2,25.9,00.0,38.3,30.6,34.8,0033.01,0012.38
2021-08-14 00:27:00,,0833.6,5.01,0.00,29.1,26.3,00.0,38.3,30.6,34.7,0032.75,0012.34
2021-08-14 00:28:00,,0833.6,4.99,0.00,29.1,26.8,00.0,38.3,30.8,35.1,0033.69,0012.40
2021-08-14 00:29:00,,0833.6,4.99,0.00,29.3,27.2,00.0,38.2,31.0,34.9,0033.46,0012.37
2021-08-14 00:30:00,,0833.6,5.01,0.00,29.5,27.5,00.0,38.2,31.2,34.2,0034.29,0012.35
2021-08-14 00:31:00,,0833.6,4.99,0.00,29.7,27.8,00.0,38.3,31.3,33.8,0034.28,0012.22
2021-08-14 00:32:00,,0833.6,5.01,0.00,29.8,28.1,00.0,38.3,31.3,33.3,0034.86,0012.18
2021-08-14 00:33:00,,0833.6,5.02,0.00,29.9,28.3,00.0,38.4,31.4,33.4,0034.48,0012.15
2021-08-14 00:34:00,,0833.7,4.99,0.00,29.9,28.5,00.0,38.4,31.5,33.4,0033.07,0012.11
2021-08-14 00:35:00,,0833.7,5.01,0.00,30.0,28.2,00.0,38.5,31.4,33.0,0033.37,0012.07
2021-08-14 00:36:00,,0833.7,5.00,0.00,29.9,26.6,00.0,38.5,30.9,33.1,0033.44,0012.05
2021-08-14 00:37:00,,0833.7,5.01,0.00,29.8,25.8,00.0,38.5,30.7,33.5,0032.07,0011.99
2021-08-14 00:38:00,,0833.6,5.01,0.00,29.7,26.0,00.0,38.5,30.7,33.8,0033.59,0012.08
2021-08-14 00:39:00,,0833.6,5.00,0.00,29.6,26.4,00.0,38.5,30.8,33.4,0034.24,0012.03
2021-08-14 00:40:00,,0833.7,5.00,0.00,29.6,26.9,00.0,38.5,30.9,33.6,0035.75,0012.03
2021-08-14 00:41:00,,0833.6,5.01,0.00,29.6,27.3,00.0,38.5,31.0,33.6,0036.43,0012.02
2021-08-14 00:42:00,,0833.7,4.98,0.00,29.6,27.6,00.0,38.5,31.1,34.0,0037.10,0012.11
2021-08-14 00:43:00,,0833.6,5.01,0.00,29.7,27.9,00.0,38.5,31.2,33.8,0037.03,0012.27
2021-08-14 00:44:00,,0833.7,4.99,0.00,29.7,28.2,00.0,38.5,31.3,34.0,0037.59,0012.29
2021-08-14 00:45:00,,0833.7,5.01,0.00,29.8,28.4,00.0,38.5,31.4,33.8,0037.86,0012.34
2021-08-14 00:46:00,,0833.7,4.99,0.00,29.8,28.3,00.0,38.6,31.4,33.2,0037.57,0012.39
2021-08-14 00:47:00,,0833.7,5.02,0.00,29.7,26.8,00.0,38.5,30.9,32.9,0037.77,0012.42
2021-08-14 00:48:00,,0833.7,4.98,0.00,29.5,25.8,00.0,38.5,30.6,32.9,0037.76,0012.42
2021-08-14 00:49:00,,0833.7,5.02,0.00,29.4,25.8,00.0,38.5,30.6,33.2,0035.92,0012.40
2021-08-14 00:50:00,,0833.7,4.99,0.00,29.4,26.2,00.0,38.5,30.7,33.3,0035.58,0012.46
2021-08-14 00:51:00,,0833.7,5.00,0.00,29.4,26.7,00.0,38.4,30.8,33.2,0036.65,0012.46
2021-08-14 00:52:00,,0833.7,5.00,0.00,29.4,27.1,00.0,38.4,31.0,33.2,0035.47,0012.42
2021-08-14 00:53:00,,0833.7,5.01,0.00,29.4,27.5,00.0,38.4,31.1,33.1,0036.00,0012.43
2021-08-14 00:54:00,,0833.6,5.00,0.00,29.5,27.8,00.0,38.4,31.2,33.0,0036.15,0012.30
2021-08-14 00:55:00,,0833.7,4.98,0.00,29.5,28.1,00.0,38.4,31.2,32.9,0036.46,0012.32
2021-08-14 00:56:00,,0833.6,5.02,0.00,29.6,28.3,00.0,38.4,31.3,32.8,0035.50,0012.34
2021-08-14 00:57:00,,0833.6,5.00,0.00,29.6,28.5,00.0,38.5,31.4,32.7,0036.80,0012.36
2021-08-14 00:58:00,,0833.6,5.01,0.00,29.7,28.5,00.0,38.5,31.4,32.6,0036.86,0012.36
2021-08-14 00:59:00,,0833.6,5.00,0.00,29.6,27.4,00.0,38.5,31.0,32.5,0038.96,0012.42
